TimeEDT,TemperatureF,Dew PointF,Humidity,Sea Level PressureIn,VisibilityMPH,Wind Direction,Wind SpeedMPH,Gust SpeedMPH,PrecipitationIn,Events,Conditions,WindDirDegrees,DateUTC
12:55 AM,44.1,41.5,91,30.05,10.0,NNE,10.4,20.7,0.01,Rain,Light Rain,20,2012-10-06 04:55:00
1:55 AM,43.7,42.3,95,30.08,10.0,NW,8.1,-,0.03,Rain,Light Rain,310,2012-10-06 05:55:00
2:55 AM,43.3,42.1,95,30.10,10.0,NW,6.9,-,0.06,Rain,Light Rain,320,2012-10-06 06:55:00
3:43 AM,42.8,41.0,93,30.09,10.0,NW,9.2,-,N/A,,Overcast,320,2012-10-06 07:43:00
3:55 AM,42.4,40.6,93,30.11,10.0,NW,9.2,-,0.01,,Overcast,320,2012-10-06 07:55:00
4:41 AM,42.8,41.0,93,30.09,10.0,NW,8.1,-,N/A,,Overcast,320,2012-10-06 08:41:00
4:55 AM,42.3,40.1,92,30.11,10.0,NW,5.8,-,N/A,,Overcast,320,2012-10-06 08:55:00
5:55 AM,41.0,39.4,94,30.14,10.0,WNW,5.8,-,N/A,,Mostly Cloudy,300,2012-10-06 09:55:00
6:44 AM,39.2,37.4,93,30.13,10.0,WNW,4.6,-,N/A,,Mostly Cloudy,300,2012-10-06 10:44:00
6:55 AM,39.4,37.6,93,30.15,10.0,WNW,4.6,-,N/A,,Clear,300,2012-10-06 10:55:00
7:55 AM,39.0,37.4,94,30.16,10.0,NW,3.5,-,N/A,,Clear,310,2012-10-06 11:55:00
8:55 AM,41.4,39.0,91,30.19,10.0,NW,4.6,-,N/A,,Clear,310,2012-10-06 12:55:00
9:55 AM,43.7,38.3,81,30.20,10.0,WNW,5.8,-,N/A,,Clear,300,2012-10-06 13:55:00
10:55 AM,46.6,37.2,70,30.20,10.0,Variable,6.9,-,N/A,,Clear,0,2012-10-06 14:55:00
11:55 AM,50.5,35.2,56,30.18,10.0,NNW,4.6,-,N/A,,Clear,340,2012-10-06 15:55:00
12:55 PM,52.5,33.8,49,30.17,10.0,NW,6.9,-,N/A,,Mostly Cloudy,310,2012-10-06 16:55:00
1:55 PM,55.6,32.4,41,30.13,10.0,Variable,4.6,-,N/A,,Clear,0,2012-10-06 17:55:00
2:55 PM,56.7,30.2,37,30.12,10.0,West,5.8,-,N/A,,Scattered Clouds,270,2012-10-06 18:55:00
3:55 PM,57.2,30.7,37,30.12,10.0,NW,6.9,-,N/A,,Mostly Cloudy,320,2012-10-06 19:55:00
4:55 PM,56.8,31.3,38,30.12,10.0,WNW,8.1,-,N/A,,Mostly Cloudy,290,2012-10-06 20:55:00
5:55 PM,54.5,33.8,46,30.13,10.0,WNW,5.8,-,N/A,,Overcast,300,2012-10-06 21:55:00
6:55 PM,52.2,34.7,51,30.14,10.0,WNW,6.9,-,N/A,,Partly Cloudy,300,2012-10-06 22:55:00
7:55 PM,50.5,34.2,53,30.14,10.0,NW,6.9,-,N/A,,Overcast,320,2012-10-06 23:55:00
8:55 PM,49.6,34.9,57,30.14,10.0,NNW,8.1,-,N/A,,Overcast,330,2012-10-07 00:55:00
9:55 PM,48.6,35.8,61,30.16,10.0,WNW,5.8,-,N/A,,Overcast,300,2012-10-07 01:55:00
10:55 PM,48.0,37.4,67,30.17,10.0,WNW,4.6,-,N/A,,Overcast,290,2012-10-07 02:55:00
11:55 PM,47.8,36.9,66,30.17,10.0,NW,6.9,-,N/A,,Mostly Cloudy,310,2012-10-07 03:55:00